This is the latest recevied weather packets stored in our database for station/object WX4ET. If no packets are shown the sender has not sent any weather packets the latest 10 day(s).
| Time | Temp. | Humidity | Pressure | Rain* | Wind** | Luminosity | Snow |
|---|---|---|---|---|---|---|---|
| 1776958884 | 23.33° C | 51% | 1014.7 hPa | 0 mm | - | 597 W/m² | - |
| 1776958583 | 23.33° C | 56% | 1015 hPa | 0 mm | - | 600 W/m² | - |
| 1776958282 | 22.22° C | 55% | 1014.8 hPa | 0 mm | - | 573 W/m² | - |
| 1776957978 | 22.78° C | 54% | 1014.9 hPa | 0 mm | - | 585 W/m² | - |
| 1776957673 | 22.22° C | 58% | 1014.9 hPa | 0 mm | - | 581 W/m² | - |
| 1776957368 | 22.78° C | 53% | 1014.8 hPa | 0 mm | - | 605 W/m² | - |
| 1776957063 | 21.11° C | 58% | 1015.2 hPa | 0 mm | - | 609 W/m² | - |
| 1776956762 | 21.11° C | 58% | 1015.1 hPa | 0 mm | - | 523 W/m² | - |
| 1776956461 | 20.56° C | 59% | 1015.1 hPa | 0 mm | - | 614 W/m² | - |
| 1776956156 | 20.56° C | 57% | 1015.3 hPa | 0 mm | - | 633 W/m² | - |
| 1776955852 | 20.56° C | 59% | 1015.3 hPa | 0 mm | - | 655 W/m² | - |
| 1776955549 | 20.56° C | 59% | 1015.2 hPa | 0 mm | - | 672 W/m² | - |
| 1776955245 | 21.11° C | 58% | 1015.3 hPa | 0 mm | - | 664 W/m² | - |
| 1776954941 | 20.56° C | 58% | 1015.5 hPa | 0 mm | - | 649 W/m² | - |
| 1776954638 | 20.56° C | 57% | 1015.3 hPa | 0 mm | - | 612 W/m² | - |
| 1776954337 | 20° C | 63% | 1015.2 hPa | 0 mm | - | 576 W/m² | - |
| 1776954032 | 19.44° C | 60% | 1015.3 hPa | 0 mm | - | 540 W/m² | - |
| 1776953726 | 19.44° C | 62% | 1015.3 hPa | 0 mm | - | 511 W/m² | - |
| 1776953427 | 19.44° C | 61% | 1015.3 hPa | 0 mm | - | 508 W/m² | - |
| 1776953121 | 18.89° C | 64% | 1015.3 hPa | 0 mm | - | 509 W/m² | - |
| 1776952816 | 18.33° C | 64% | 1015.4 hPa | 0 mm | - | 483 W/m² | - |
| 1776952514 | 18.33° C | 64% | 1015.4 hPa | 0 mm | - | 450 W/m² | - |
| 1776952210 | 18.33° C | 63% | 1015.3 hPa | 0 mm | - | 411 W/m² | - |
| 1776951907 | 17.78° C | 65% | 1015.4 hPa | 0 mm | - | 363 W/m² | - |
| 1776951604 | 17.78° C | 65% | 1015.2 hPa | 0 mm | - | 348 W/m² | - |
* Rain latest hour (hover to see other rain measurements)
** Current wind speed in m/s (hover to see current wind gust speed)